User: anonymous   Login
Location: Newark
(13.8625°N, 100.5144°E)
Time: 20:31:56
(UTC+00:00)
Language:

BEESAT - Orbit

View from above orbital plane
View from above orbital plane
View from above satellite
View from above satellite

Ground track
Ground track

The orbit data is extracted from the following two-line orbital elements,

1 35933U 09051C   21204.52192746  .00000161  00000-0  47113-4 0  9991
2 35933  98.5969  47.4777 0005767   2.9642 357.1588 14.56611118628282
Epoch (UTC): 23 July 2021 12:31:34
Eccentricity: 0.0005767
inclination: 98.5969°
perigee height: 700 km
apogee height: 708 km
right ascension of ascending node: 47.4777°
argument of perigee: 2.9642°
revolutions per day: 14.56611118
mean anomaly at epoch: 357.1588°
orbit number at epoch: 62828

The dashed part of the orbit path shows where the satellite is in the earth's shadow,  

DLR